Time,TemperatureF,DewpointF,PressureIn,WindDirection,WindDirectionDegrees,WindSpeedMPH,WindSpeedGustMPH,Humidity,HourlyPrecipIn,Conditions,Clouds,dailyrainin,SoftwareType,DateUTC
2013-03-07 00:02:00,16.0,-99.9,-100.00,SW,236,4.0,6.0,-999,0.00,,,0.00,,2013-03-07 06:02:00,
2013-03-07 00:11:00,16.0,-99.9,-100.00,SW,236,4.0,6.0,-999,0.00,,,0.00,,2013-03-07 06:11:00,
2013-03-07 00:22:00,16.0,-99.9,-100.00,SW,236,4.0,6.0,-999,0.00,,,0.00,,2013-03-07 06:22:00,
2013-03-07 00:32:00,14.0,-99.9,-100.00,SW,233,5.0,5.0,-999,0.00,,,0.00,,2013-03-07 06:32:00,
2013-03-07 00:42:00,14.0,-99.9,-100.00,SW,233,5.0,5.0,-999,0.00,,,0.00,,2013-03-07 06:42:00,
2013-03-07 00:52:00,14.0,-99.9,-100.00,SW,233,5.0,5.0,-999,0.00,,,0.00,,2013-03-07 06:52:00,
2013-03-07 01:02:00,12.0,-99.9,-100.00,SW,236,3.0,4.0,-999,0.00,,,0.00,,2013-03-07 07:02:00,
2013-03-07 01:11:00,12.0,-99.9,-100.00,SW,236,3.0,4.0,-999,0.00,,,0.00,,2013-03-07 07:11:00,
2013-03-07 01:22:00,12.0,-99.9,-100.00,SW,236,3.0,4.0,-999,0.00,,,0.00,,2013-03-07 07:22:00,
2013-03-07 01:32:00,11.0,-99.9,-100.00,SW,231,4.0,5.0,-999,0.00,,,0.00,,2013-03-07 07:32:00,
2013-03-07 01:43:00,11.0,-99.9,-100.00,SW,231,4.0,5.0,-999,0.00,,,0.00,,2013-03-07 07:43:00,
2013-03-07 01:53:00,11.0,-99.9,-100.00,SW,231,4.0,5.0,-999,0.00,,,0.00,,2013-03-07 07:53:00,
2013-03-07 02:00:00,10.0,-99.9,-100.00,SW,236,3.0,4.0,-999,0.00,,,0.00,,2013-03-07 08:00:00,
2013-03-07 02:03:00,10.0,-99.9,-100.00,WSW,238,3.0,5.0,-999,0.00,,,0.00,,2013-03-07 08:03:00,
2013-03-07 02:12:00,10.0,-99.9,-100.00,WSW,238,3.0,5.0,-999,0.00,,,0.00,,2013-03-07 08:12:00,
2013-03-07 02:23:00,10.0,-99.9,-100.00,WSW,238,3.0,5.0,-999,0.00,,,0.00,,2013-03-07 08:23:00,
2013-03-07 02:34:00,10.0,-99.9,-100.00,SW,236,3.0,4.0,-999,0.00,,,0.00,,2013-03-07 08:34:00,
2013-03-07 02:45:00,10.0,-99.9,-100.00,SW,236,3.0,4.0,-999,0.00,,,0.00,,2013-03-07 08:45:00,
2013-03-07 02:55:00,10.0,-99.9,-100.00,SW,236,3.0,4.0,-999,0.00,,,0.00,,2013-03-07 08:55:00,
2013-03-07 03:33:00,9.0,-99.9,-100.00,SW,235,4.0,6.0,-999,0.00,,,0.00,,2013-03-07 09:33:00,
2013-03-07 03:43:00,9.0,-99.9,-100.00,SW,235,4.0,6.0,-999,0.00,,,0.00,,2013-03-07 09:43:00,
2013-03-07 03:54:00,9.0,-99.9,-100.00,SW,235,4.0,6.0,-999,0.00,,,0.00,,2013-03-07 09:54:00,
2013-03-07 04:04:00,9.0,-99.9,-100.00,WSW,248,2.0,3.0,-999,0.00,,,0.00,,2013-03-07 10:04:00,
2013-03-07 04:14:00,9.0,-99.9,-100.00,WSW,248,2.0,3.0,-999,0.00,,,0.00,,2013-03-07 10:14:00,
2013-03-07 04:24:00,9.0,-99.9,-100.00,WSW,248,2.0,3.0,-999,0.00,,,0.00,,2013-03-07 10:24:00,
2013-03-07 04:30:00,9.0,-99.9,-100.00,WSW,238,2.0,3.0,-999,0.00,,,0.00,,2013-03-07 10:30:00,
2013-03-07 04:34:00,9.0,-99.9,-100.00,SW,234,3.0,4.0,-999,0.00,,,0.00,,2013-03-07 10:34:00,
2013-03-07 04:43:00,9.0,-99.9,-100.00,SW,234,3.0,4.0,-999,0.00,,,0.00,,2013-03-07 10:43:00,
2013-03-07 04:54:00,9.0,-99.9,-100.00,SW,234,3.0,4.0,-999,0.00,,,0.00,,2013-03-07 10:54:00,
2013-03-07 05:04:00,9.0,-99.9,-100.00,WSW,238,2.0,3.0,-999,0.00,,,0.00,,2013-03-07 11:04:00,
2013-03-07 05:12:00,9.0,-99.9,-100.00,WSW,238,2.0,3.0,-999,0.00,,,0.00,,2013-03-07 11:12:00,
2013-03-07 05:24:00,9.0,-99.9,-100.00,WSW,238,2.0,3.0,-999,0.00,,,0.00,,2013-03-07 11:24:00,
2013-03-07 06:04:00,5.0,-99.9,-100.00,North,349,1.0,2.0,-999,0.00,,,0.00,,2013-03-07 12:04:00,
2013-03-07 06:13:00,5.0,-99.9,-100.00,North,349,1.0,2.0,-999,0.00,,,0.00,,2013-03-07 12:13:00,
2013-03-07 06:23:00,5.0,-99.9,-100.00,North,349,1.0,2.0,-999,0.00,,,0.00,,2013-03-07 12:23:00,
2013-03-07 06:30:00,5.0,-99.9,-100.00,NW,318,1.0,3.0,-999,0.00,,,0.00,,2013-03-07 12:30:00,
2013-03-07 06:34:00,5.0,-99.9,-100.00,NW,324,1.0,6.0,-999,0.00,,,0.00,,2013-03-07 12:34:00,
2013-03-07 06:43:00,5.0,-99.9,-100.00,NW,324,1.0,6.0,-999,0.00,,,0.00,,2013-03-07 12:43:00,
2013-03-07 06:53:00,5.0,-99.9,-100.00,NW,324,1.0,6.0,-999,0.00,,,0.00,,2013-03-07 12:53:00,
2013-03-07 07:03:00,5.0,-99.9,-100.00,NW,318,1.0,3.0,-999,0.00,,,0.00,,2013-03-07 13:03:00,
2013-03-07 07:13:00,5.0,-99.9,-100.00,NW,318,1.0,3.0,-999,0.00,,,0.00,,2013-03-07 13:13:00,
2013-03-07 07:23:00,5.0,-99.9,-100.00,NW,318,1.0,3.0,-999,0.00,,,0.00,,2013-03-07 13:23:00,
2013-03-07 08:02:00,6.0,-99.9,-100.00,North,349,3.0,5.0,-999,0.00,,,0.00,,2013-03-07 14:02:00,
2013-03-07 08:13:00,6.0,-99.9,-100.00,North,349,3.0,5.0,-999,0.00,,,0.00,,2013-03-07 14:13:00,
2013-03-07 08:23:00,6.0,-99.9,-100.00,North,349,3.0,5.0,-999,0.00,,,0.00,,2013-03-07 14:23:00,
2013-03-07 08:34:00,8.0,-99.9,-100.00,North,350,4.0,5.0,-999,0.00,,,0.00,,2013-03-07 14:34:00,
2013-03-07 08:43:00,8.0,-99.9,-100.00,North,350,4.0,5.0,-999,0.00,,,0.00,,2013-03-07 14:43:00,
2013-03-07 08:54:00,8.0,-99.9,-100.00,North,350,4.0,5.0,-999,0.00,,,0.00,,2013-03-07 14:54:00,
2013-03-07 09:03:00,11.0,-99.9,-100.00,North,353,3.0,4.0,-999,0.00,,,0.00,,2013-03-07 15:03:00,
2013-03-07 09:13:00,11.0,-99.9,-100.00,North,353,3.0,4.0,-999,0.00,,,0.00,,2013-03-07 15:13:00,
2013-03-07 09:23:00,11.0,-99.9,-100.00,North,353,3.0,4.0,-999,0.00,,,0.00,,2013-03-07 15:23:00,
2013-03-07 09:30:00,14.0,-99.9,-100.00,North,5,4.0,5.0,-999,0.00,,,0.00,,2013-03-07 15:30:00,
2013-03-07 09:33:00,13.0,-99.9,-100.00,North,350,3.0,4.0,-999,0.00,,,0.00,,2013-03-07 15:33:00,
2013-03-07 09:43:00,13.0,-99.9,-100.00,North,350,3.0,4.0,-999,0.00,,,0.00,,2013-03-07 15:43:00,
2013-03-07 09:53:00,13.0,-99.9,-100.00,North,350,3.0,4.0,-999,0.00,,,0.00,,2013-03-07 15:53:00,
2013-03-07 10:03:00,14.0,-99.9,-100.00,North,5,4.0,5.0,-999,0.00,,,0.00,,2013-03-07 16:03:00,
2013-03-07 10:13:00,14.0,-99.9,-100.00,North,5,4.0,5.0,-999,0.00,,,0.00,,2013-03-07 16:13:00,
2013-03-07 10:24:00,14.0,-99.9,-100.00,North,5,4.0,5.0,-999,0.00,,,0.00,,2013-03-07 16:24:00,
2013-03-07 11:03:00,21.0,-99.9,-100.00,North,5,3.0,4.0,-999,0.00,,,0.00,,2013-03-07 17:03:00,
2013-03-07 11:13:00,21.0,-99.9,-100.00,North,5,3.0,4.0,-999,0.00,,,0.00,,2013-03-07 17:13:00,
2013-03-07 11:23:00,21.0,-99.9,-100.00,North,5,3.0,4.0,-999,0.00,,,0.00,,2013-03-07 17:23:00,
2013-03-07 11:34:00,24.0,-99.9,-100.00,North,6,3.0,3.0,-999,0.00,,,0.00,,2013-03-07 17:34:00,
2013-03-07 11:44:00,24.0,-99.9,-100.00,North,6,3.0,3.0,-999,0.00,,,0.00,,2013-03-07 17:44:00,
2013-03-07 11:55:00,24.0,-99.9,-100.00,North,6,3.0,3.0,-999,0.00,,,0.00,,2013-03-07 17:55:00,
2013-03-07 12:04:00,30.0,-99.9,-100.00,North,352,2.0,3.0,-999,0.00,,,0.00,,2013-03-07 18:04:00,
2013-03-07 12:13:00,30.0,-99.9,-100.00,North,352,2.0,3.0,-999,0.00,,,0.00,,2013-03-07 18:13:00,
2013-03-07 12:22:00,30.0,-99.9,-100.00,North,352,2.0,3.0,-999,0.00,,,0.00,,2013-03-07 18:22:00,
2013-03-07 12:33:00,31.0,-99.9,-100.00,SSE,149,3.0,7.0,-999,0.00,,,0.00,,2013-03-07 18:33:00,
2013-03-07 12:43:00,31.0,-99.9,-100.00,SSE,149,3.0,7.0,-999,0.00,,,0.00,,2013-03-07 18:43:00,
2013-03-07 12:53:00,31.0,-99.9,-100.00,SSE,149,3.0,7.0,-999,0.00,,,0.00,,2013-03-07 18:53:00,
2013-03-07 13:00:00,32.0,-99.9,-100.00,SSE,156,4.0,7.0,-999,0.00,,,0.00,,2013-03-07 19:00:00,
2013-03-07 13:04:00,32.0,-99.9,-100.00,SSE,157,6.0,9.0,-999,0.00,,,0.00,,2013-03-07 19:04:00,
2013-03-07 13:13:00,32.0,-99.9,-100.00,SSE,157,6.0,9.0,-999,0.00,,,0.00,,2013-03-07 19:13:00,
2013-03-07 13:24:00,32.0,-99.9,-100.00,SSE,157,6.0,9.0,-999,0.00,,,0.00,,2013-03-07 19:24:00,
2013-03-07 13:35:00,32.0,-99.9,-100.00,SSE,156,4.0,7.0,-999,0.00,,,0.00,,2013-03-07 19:35:00,
2013-03-07 13:44:00,32.0,-99.9,-100.00,SSE,156,4.0,7.0,-999,0.00,,,0.00,,2013-03-07 19:44:00,
2013-03-07 13:53:00,32.0,-99.9,-100.00,SSE,156,4.0,7.0,-999,0.00,,,0.00,,2013-03-07 19:53:00,
2013-03-07 14:14:00,35.0,-99.9,-100.00,South,185,2.0,5.0,-999,0.00,,,0.00,,2013-03-07 20:14:00,
2013-03-07 14:34:00,35.0,-99.9,-100.00,SSE,160,2.0,4.0,-999,0.00,,,0.00,,2013-03-07 20:34:00,
2013-03-07 14:44:00,35.0,-99.9,-100.00,SSE,160,2.0,4.0,-999,0.00,,,0.00,,2013-03-07 20:44:00,
2013-03-07 14:54:00,35.0,-99.9,-100.00,SSE,160,2.0,4.0,-999,0.00,,,0.00,,2013-03-07 20:54:00,
2013-03-07 15:03:00,34.0,-99.9,-100.00,SSE,157,5.0,8.0,-999,0.00,,,0.00,,2013-03-07 21:03:00,
2013-03-07 15:13:00,34.0,-99.9,-100.00,SSE,157,5.0,8.0,-999,0.00,,,0.00,,2013-03-07 21:13:00,
2013-03-07 15:23:00,34.0,-99.9,-100.00,SSE,157,5.0,8.0,-999,0.00,,,0.00,,2013-03-07 21:23:00,
2013-03-07 15:33:00,34.0,-99.9,-100.00,SSE,158,4.0,6.0,-999,0.00,,,0.00,,2013-03-07 21:33:00,
2013-03-07 15:43:00,34.0,-99.9,-100.00,SSE,158,4.0,6.0,-999,0.00,,,0.00,,2013-03-07 21:43:00,
2013-03-07 15:53:00,34.0,-99.9,-100.00,SSE,158,4.0,6.0,-999,0.00,,,0.00,,2013-03-07 21:53:00,
2013-03-07 16:02:00,34.0,-99.9,-100.00,SSE,164,4.0,5.0,-999,0.00,,,0.00,,2013-03-07 22:02:00,
2013-03-07 16:12:00,34.0,-99.9,-100.00,SSE,164,4.0,5.0,-999,0.00,,,0.00,,2013-03-07 22:12:00,
2013-03-07 16:23:00,34.0,-99.9,-100.00,SSE,164,4.0,5.0,-999,0.00,,,0.00,,2013-03-07 22:23:00,
2013-03-07 16:33:00,34.0,-99.9,-100.00,SSE,158,4.0,6.0,-999,0.00,,,0.00,,2013-03-07 22:33:00,
2013-03-07 16:44:00,34.0,-99.9,-100.00,SSE,158,4.0,6.0,-999,0.00,,,0.00,,2013-03-07 22:44:00,
2013-03-07 16:55:00,34.0,-99.9,-100.00,SSE,158,4.0,6.0,-999,0.00,,,0.00,,2013-03-07 22:55:00,
2013-03-07 17:04:00,34.0,-99.9,-100.00,SSE,165,5.0,6.0,-999,0.00,,,0.00,,2013-03-07 23:04:00,
2013-03-07 17:13:00,34.0,-99.9,-100.00,SSE,165,5.0,6.0,-999,0.00,,,0.00,,2013-03-07 23:13:00,
2013-03-07 17:23:00,34.0,-99.9,-100.00,SSE,165,5.0,6.0,-999,0.00,,,0.00,,2013-03-07 23:23:00,
2013-03-07 17:35:00,32.0,-99.9,-100.00,South,169,3.0,4.0,-999,0.00,,,0.00,,2013-03-07 23:35:00,
2013-03-07 17:44:00,32.0,-99.9,-100.00,South,169,3.0,4.0,-999,0.00,,,0.00,,2013-03-07 23:44:00,
2013-03-07 17:54:00,32.0,-99.9,-100.00,South,169,3.0,4.0,-999,0.00,,,0.00,,2013-03-07 23:54:00,
2013-03-07 18:05:00,31.0,-99.9,-100.00,SSW,193,4.0,5.0,-999,0.00,,,0.00,,2013-03-08 00:05:00,
2013-03-07 18:14:00,31.0,-99.9,-100.00,SSW,193,4.0,5.0,-999,0.00,,,0.00,,2013-03-08 00:14:00,
2013-03-07 18:23:00,31.0,-99.9,-100.00,SSW,193,4.0,5.0,-999,0.00,,,0.00,,2013-03-08 00:23:00,
2013-03-07 18:35:00,30.0,-99.9,-100.00,SSW,196,3.0,5.0,-999,0.00,,,0.00,,2013-03-08 00:35:00,
2013-03-07 18:44:00,30.0,-99.9,-100.00,SSW,196,3.0,5.0,-999,0.00,,,0.00,,2013-03-08 00:44:00,
2013-03-07 18:54:00,30.0,-99.9,-100.00,SSW,196,3.0,5.0,-999,0.00,,,0.00,,2013-03-08 00:54:00,
2013-03-07 19:02:00,29.0,-99.9,-100.00,South,186,2.0,3.0,-999,0.00,,,0.00,,2013-03-08 01:02:00,
2013-03-07 19:12:00,29.0,-99.9,-100.00,South,186,2.0,3.0,-999,0.00,,,0.00,,2013-03-08 01:12:00,
2013-03-07 19:22:00,29.0,-99.9,-100.00,South,186,2.0,3.0,-999,0.00,,,0.00,,2013-03-08 01:22:00,
2013-03-07 19:33:00,28.0,-99.9,-100.00,SSE,166,2.0,4.0,-999,0.00,,,0.00,,2013-03-08 01:33:00,
2013-03-07 19:42:00,28.0,-99.9,-100.00,SSE,166,2.0,4.0,-999,0.00,,,0.00,,2013-03-08 01:42:00,
2013-03-07 19:52:00,28.0,-99.9,-100.00,SSE,166,2.0,4.0,-999,0.00,,,0.00,,2013-03-08 01:52:00,
2013-03-07 20:02:00,25.0,-99.9,-100.00,North,352,1.0,2.0,-999,0.00,,,0.00,,2013-03-08 02:02:00,
2013-03-07 20:12:00,25.0,-99.9,-100.00,North,352,1.0,2.0,-999,0.00,,,0.00,,2013-03-08 02:12:00,
2013-03-07 20:22:00,25.0,-99.9,-100.00,North,352,1.0,2.0,-999,0.00,,,0.00,,2013-03-08 02:22:00,
2013-03-07 20:32:00,26.0,-99.9,-100.00,North,351,0.0,0.0,-999,0.00,,,0.00,,2013-03-08 02:32:00,
2013-03-07 20:42:00,26.0,-99.9,-100.00,North,351,0.0,0.0,-999,0.00,,,0.00,,2013-03-08 02:42:00,
2013-03-07 20:53:00,26.0,-99.9,-100.00,North,351,0.0,0.0,-999,0.00,,,0.00,,2013-03-08 02:53:00,
2013-03-07 21:02:00,24.0,-99.9,-100.00,WSW,241,1.0,2.0,-999,0.00,,,0.00,,2013-03-08 03:02:00,
2013-03-07 21:12:00,24.0,-99.9,-100.00,WSW,241,1.0,2.0,-999,0.00,,,0.00,,2013-03-08 03:12:00,
2013-03-07 21:23:00,24.0,-99.9,-100.00,WSW,241,1.0,2.0,-999,0.00,,,0.00,,2013-03-08 03:23:00,
2013-03-07 21:33:00,22.0,-99.9,-100.00,WSW,237,3.0,4.0,-999,0.00,,,0.00,,2013-03-08 03:33:00,
2013-03-07 21:43:00,22.0,-99.9,-100.00,WSW,237,3.0,4.0,-999,0.00,,,0.00,,2013-03-08 03:43:00,
2013-03-07 21:53:00,22.0,-99.9,-100.00,WSW,237,3.0,4.0,-999,0.00,,,0.00,,2013-03-08 03:53:00,
2013-03-07 22:02:00,20.0,-99.9,-100.00,SW,232,3.0,4.0,-999,0.00,,,0.00,,2013-03-08 04:02:00,
2013-03-07 22:12:00,20.0,-99.9,-100.00,SW,232,3.0,4.0,-999,0.00,,,0.00,,2013-03-08 04:12:00,
2013-03-07 22:22:00,20.0,-99.9,-100.00,SW,232,3.0,4.0,-999,0.00,,,0.00,,2013-03-08 04:22:00,
2013-03-07 22:32:00,22.0,-99.9,-100.00,WSW,244,2.0,3.0,-999,0.00,,,0.00,,2013-03-08 04:32:00,
2013-03-07 22:43:00,22.0,-99.9,-100.00,WSW,244,2.0,3.0,-999,0.00,,,0.00,,2013-03-08 04:43:00,
2013-03-07 22:52:00,22.0,-99.9,-100.00,WSW,244,2.0,3.0,-999,0.00,,,0.00,,2013-03-08 04:52:00,
2013-03-07 23:02:00,20.0,-99.9,-100.00,SW,228,4.0,6.0,-999,0.00,,,0.00,,2013-03-08 05:02:00,
2013-03-07 23:12:00,20.0,-99.9,-100.00,SW,228,4.0,6.0,-999,0.00,,,0.00,,2013-03-08 05:12:00,
2013-03-07 23:22:00,20.0,-99.9,-100.00,SW,228,4.0,6.0,-999,0.00,,,0.00,,2013-03-08 05:22:00,
2013-03-07 23:33:00,16.0,-99.9,-100.00,SW,234,5.0,6.0,-999,0.00,,,0.00,,2013-03-08 05:33:00,
2013-03-07 23:43:00,16.0,-99.9,-100.00,SW,234,5.0,6.0,-999,0.00,,,0.00,,2013-03-08 05:43:00,
2013-03-07 23:52:00,16.0,-99.9,-100.00,SW,234,5.0,6.0,-999,0.00,,,0.00,,2013-03-08 05:52:00,